Location: Glencliff
(36.1226°N, 86.7183°W)
Time: 21:45:58
(UTC+00:00)

ATLAS 2AS CENTAUR R/B - Pass Details

Date: 25 August 2019
Orbit: 919 x 1292 km, 63.6° (Epoch: 18 October)

Event Time Altitude Azimuth Distance (km) Brightness Sun altitude
Rises 05:49:10 0° 334° (NNW) 4,204 6.5 -43.0°
Reaches altitude 10° 05:52:30 10° 345° (NNW) 3,191 5.8 -43.0°
Enters shadow 05:58:46 30° 40° (NE) 1,964 4.3 -43.0°
